| time (UTC) | temp C | wind direction | speed KPH | gust KPH | rain 1hr cm | rain 24hr cm | rain mn cm | humidity % | barometer mb |
| 20260903030423 | 17 | 237 | 22.5 | 35.4 | 0.00 | 0.00 | 0.00 | 83 | 1015.7 |
| 20260903025929 | 17 | 287 | 20.9 | 37.0 | 0.00 | 0.00 | 0.00 | 83 | 1015.6 |
| 20260903025434 | 17 | 273 | 20.9 | 37.0 | 0.00 | 0.00 | 0.00 | 83 | 1015.6 |
| 20260903024918 | 17 | 242 | 17.7 | 32.2 | 0.00 | 0.00 | 0.00 | 83 | 1015.6 |
| 20260903024425 | 17 | 265 | 16.1 | 33.8 | 0.00 | 0.00 | 0.00 | 82 | 1015.7 |
| 20260903023930 | 17 | 282 | 19.3 | 33.8 | 0.00 | 0.00 | 0.00 | 82 | 1015.7 |
| 20260903023437 | 17 | 270 | 16.1 | 30.6 | 0.00 | 0.00 | 0.00 | 81 | 1015.8 |
| 20260903022939 | 17 | 257 | 17.7 | 35.4 | 0.00 | 0.00 | 0.00 | 81 | 1015.8 |
| 20260903022423 | 17 | 280 | 17.7 | 29.0 | 0.00 | 0.00 | 0.00 | 81 | 1016.0 |
| 20260903021929 | 17 | 276 | 16.1 | 35.4 | 0.00 | 0.00 | 0.00 | 80 | 1015.9 |
| 20260903021435 | 17 | 271 | 19.3 | 33.8 | 0.00 | 0.00 | 0.00 | 80 | 1016.0 |
| 20260903020920 | 17 | 277 | 20.9 | 33.8 | 0.00 | 0.00 | 0.00 | 80 | 1016.0 |
| 20260903020425 | 17 | 282 | 14.5 | 37.0 | 0.00 | 0.00 | 0.00 | 80 | 1016.1 |
| 20260903015929 | 17 | 254 | 16.1 | 37.0 | 0.00 | 0.00 | 0.00 | 79 | 1016.1 |
| 20260903015433 | 17 | 292 | 14.5 | 25.7 | 0.00 | 0.00 | 0.00 | 79 | 1016.2 |
| 20260903014921 | 17 | 249 | 16.1 | 29.0 | 0.00 | 0.00 | 0.00 | 79 | 1016.2 |
| 20260903014429 | 17 | 285 | 16.1 | 30.6 | 0.00 | 0.00 | 0.00 | 78 | 1016.2 |
| 20260903013917 | 17 | 257 | 19.3 | 30.6 | 0.00 | 0.00 | 0.00 | 77 | 1016.2 |
| 20260903013423 | 18 | 254 | 14.5 | 40.2 | 0.00 | 0.00 | 0.00 | 77 | 1016.4 |
| 20260903012931 | 18 | 222 | 16.1 | 40.2 | 0.00 | 0.00 | 0.00 | 76 | 1016.2 |
| 20260903012419 | 18 | 291 | 20.9 | 35.4 | 0.00 | 0.00 | 0.00 | 76 | 1016.3 |
| 20260903011927 | 18 | 228 | 19.3 | 37.0 | 0.00 | 0.00 | 0.00 | 75 | 1016.2 |
| 20260903011430 | 18 | 256 | 17.7 | 35.4 | 0.00 | 0.00 | 0.00 | 75 | 1016.3 |
| 20260903010936 | 18 | 233 | 20.9 | 30.6 | 0.00 | 0.00 | 0.00 | 75 | 1016.3 |
| 20260903010445 | 18 | 276 | 17.7 | 33.8 | 0.00 | 0.00 | 0.00 | 75 | 1016.3 |
| 20260903005939 | 18 | 282 | 19.3 | 33.8 | 0.00 | 0.00 | 0.00 | 74 | 1016.3 |
| 20260903005451 | 18 | 257 | 20.9 | 29.0 | 0.00 | 0.00 | 0.00 | 74 | 1016.3 |
| 20260903004936 | 18 | 268 | 14.5 | 33.8 | 0.00 | 0.00 | 0.00 | 74 | 1016.3 |
| 20260903004421 | 18 | 280 | 24.1 | 33.8 | 0.00 | 0.00 | 0.00 | 74 | 1016.3 |
| 20260903003927 | 18 | 281 | 19.3 | 38.6 | 0.00 | 0.00 | 0.00 | 73 | 1016.3 |
| 20260903003433 | 18 | 316 | 19.3 | 38.6 | 0.00 | 0.00 | 0.00 | 73 | 1016.4 |
| 20260903002918 | 18 | 278 | 20.9 | 37.0 | 0.00 | 0.00 | 0.00 | 74 | 1016.4 |
| 20260903002426 | 18 | 288 | 24.1 | 35.4 | 0.00 | 0.00 | 0.00 | 73 | 1016.5 |
| 20260903001929 | 18 | 249 | 20.9 | 37.0 | 0.00 | 0.00 | 0.00 | 73 | 1016.6 |
| 20260903001435 | 18 | 264 | 14.5 | 37.0 | 0.00 | 0.00 | 0.00 | 73 | 1016.6 |
| 20260903000922 | 18 | 263 | 20.9 | 35.4 | 0.00 | 0.00 | 0.00 | 73 | 1016.5 |
| 20260903000432 | 18 | 273 | 24.1 | 35.4 | 0.00 | 0.00 | 0.00 | 73 | 1016.6 |
| 20260902235936 | 19 | 280 | 17.7 | 33.8 | 0.00 | 0.00 | 0.00 | 73 | 1016.7 |
| 20260902235453 | 19 | 310 | 17.7 | 35.4 | 0.00 | 0.00 | 0.00 | 73 | 1016.7 |
| 20260902234939 | 19 | 225 | 19.3 | 35.4 | 0.00 | 0.00 | 0.00 | 72 | 1016.8 |
| 20260902234442 | 19 | 270 | 12.9 | 30.6 | 0.00 | 0.00 | 0.00 | 72 | 1016.8 |
| 20260902233926 | 19 | 275 | 16.1 | 29.0 | 0.00 | 0.00 | 0.00 | 72 | 1016.8 |
| 20260902233434 | 20 | 268 | 16.1 | 30.6 | 0.00 | 0.00 | 0.00 | 71 | 1016.7 |
| 20260902232948 | 19 | 258 | 16.1 | 30.6 | 0.00 | 0.00 | 0.00 | 71 | 1016.7 |
| 20260902232434 | 19 | 248 | 17.7 | 29.0 | 0.00 | 0.00 | 0.00 | 71 | 1016.7 |
| 20260902231941 | 19 | 310 | 16.1 | 30.6 | 0.00 | 0.00 | 0.00 | 72 | 1016.8 |
| 20260902231445 | 19 | 239 | 16.1 | 37.0 | 0.00 | 0.00 | 0.00 | 72 | 1016.9 |
| 20260902230932 | 20 | 268 | 20.9 | 37.0 | 0.00 | 0.00 | 0.00 | 71 | 1016.9 |
| 20260902230436 | 20 | 275 | 14.5 | 35.4 | 0.00 | 0.00 | 0.00 | 72 | 1016.9 |
| 20260902225928 | 19 | 280 | 19.3 | 35.4 | 0.00 | 0.00 | 0.00 | 72 | 1017.0 |
| 20260902225434 | 20 | 280 | 12.9 | 30.6 | 0.00 | 0.00 | 0.00 | 72 | 1017.1 |
| 20260902224938 | 20 | 289 | 12.9 | 30.6 | 0.00 | 0.00 | 0.00 | 72 | 1017.1 |
| 20260902224451 | 20 | 258 | 14.5 | 27.4 | 0.00 | 0.00 | 0.00 | 71 | 1017.2 |
| 20260902223939 | 20 | 273 | 17.7 | 27.4 | 0.00 | 0.00 | 0.00 | 71 | 1017.3 |
| 20260902223423 | 20 | 259 | 11.3 | 25.7 | 0.00 | 0.00 | 0.00 | 71 | 1017.2 |
| 20260902222955 | 20 | 258 | 11.3 | 25.7 | 0.00 | 0.00 | 0.00 | 71 | 1017.2 |
| 20260902222422 | 20 | 233 | 8.0 | 25.7 | 0.00 | 0.00 | 0.00 | 71 | 1017.3 |
| 20260902221927 | 20 | 256 | 12.9 | 25.7 | 0.00 | 0.00 | 0.00 | 71 | 1017.3 |
| 20260902221417 | 20 | 282 | 9.7 | 22.5 | 0.00 | 0.00 | 0.00 | 72 | 1017.2 |
| 20260902220918 | 20 | 249 | 9.7 | 25.7 | 0.00 | 0.00 | 0.00 | 72 | 1017.3 |
| 20260902220453 | 20 | 303 | 16.1 | 29.0 | 0.00 | 0.00 | 0.00 | 72 | 1017.3 |
| 20260902215925 | 20 | 256 | 11.3 | 32.2 | 0.00 | 0.00 | 0.00 | 72 | 1017.3 |
| 20260902215428 | 20 | 270 | 16.1 | 32.2 | 0.00 | 0.00 | 0.00 | 72 | 1017.3 |
| 20260902214934 | 20 | 301 | 17.7 | 29.0 | 0.00 | 0.00 | 0.00 | 71 | 1017.4 |
| 20260902214423 | 20 | 226 | 17.7 | 29.0 | 0.00 | 0.00 | 0.00 | 72 | 1017.3 |
| 20260902213958 | 20 | 302 | 11.3 | 25.7 | 0.00 | 0.00 | 0.00 | 71 | 1017.4 |
| 20260902213418 | 20 | 254 | 12.9 | 33.8 | 0.00 | 0.00 | 0.00 | 72 | 1017.5 |
| 20260902212922 | 20 | 251 | 16.1 | 33.8 | 0.00 | 0.00 | 0.00 | 72 | 1017.5 |
| 20260902212427 | 20 | 232 | 14.5 | 29.0 | 0.00 | 0.00 | 0.00 | 73 | 1017.5 |
| 20260902211934 | 20 | 271 | 19.3 | 29.0 | 0.00 | 0.00 | 0.00 | 71 | 1017.4 |
| 20260902211439 | 20 | 296 | 8.0 | 27.4 | 0.00 | 0.00 | 0.00 | 73 | 1017.5 |
| 20260902210928 | 20 | 289 | 11.3 | 32.2 | 0.00 | 0.00 | 0.00 | 73 | 1017.5 |
| 20260902210436 | 20 | 268 | 16.1 | 32.2 | 0.00 | 0.00 | 0.00 | 73 | 1017.6 |
| 20260902205944 | 20 | 256 | 14.5 | 25.7 | 0.00 | 0.00 | 0.00 | 73 | 1017.5 |
| 20260902205432 | 20 | 284 | 11.3 | 25.7 | 0.00 | 0.00 | 0.00 | 73 | 1017.5 |
| 20260902204920 | 20 | 220 | 11.3 | 20.9 | 0.00 | 0.00 | 0.00 | 73 | 1017.6 |
| 20260902204445 | 20 | 242 | 8.0 | 22.5 | 0.00 | 0.00 | 0.00 | 74 | 1017.5 |
| 20260902203928 | 20 | 261 | 8.0 | 22.5 | 0.00 | 0.00 | 0.00 | 74 | 1017.6 |
| 20260902203435 | 19 | 245 | 11.3 | 24.1 | 0.00 | 0.00 | 0.00 | 75 | 1017.6 |
| 20260902202922 | 19 | 327 | 12.9 | 25.7 | 0.00 | 0.00 | 0.00 | 75 | 1017.6 |
| 20260902202424 | 19 | 212 | 8.0 | 25.7 | 0.00 | 0.00 | 0.00 | 75 | 1017.7 |
| 20260902201928 | 20 | 239 | 12.9 | 24.1 | 0.00 | 0.00 | 0.00 | 75 | 1017.8 |
| 20260902201436 | 20 | 209 | 11.3 | 24.1 | 0.00 | 0.00 | 0.00 | 75 | 1017.9 |
| 20260902200923 | 20 | 230 | 11.3 | 25.7 | 0.00 | 0.00 | 0.00 | 75 | 1017.9 |
| 20260902200428 | 19 | 229 | 14.5 | 25.7 | 0.00 | 0.00 | 0.00 | 75 | 1017.9 |
| 20260902195932 | 19 | 289 | 11.3 | 19.3 | 0.00 | 0.00 | 0.00 | 76 | 1018.0 |
| 20260902195421 | 19 | 286 | 8.0 | 17.7 | 0.00 | 0.00 | 0.00 | 76 | 1018.1 |
| 20260902194943 | 19 | 264 | 9.7 | 19.3 | 0.00 | 0.00 | 0.00 | 76 | 1018.2 |
| 20260902194428 | 19 | 340 | 8.0 | 25.7 | 0.00 | 0.00 | 0.00 | 76 | 1018.2 |
| 20260902193935 | 19 | 251 | 8.0 | 17.7 | 0.00 | 0.00 | 0.00 | 77 | 1018.3 |
| 20260902193450 | 19 | 195 | 9.7 | 22.5 | 0.00 | 0.00 | 0.00 | 78 | 1018.2 |
| 20260902192934 | 18 | 216 | 11.3 | 24.1 | 0.00 | 0.00 | 0.00 | 79 | 1018.2 |
| 20260902192421 | 18 | 221 | 12.9 | 22.5 | 0.00 | 0.00 | 0.00 | 79 | 1018.3 |
| 20260902191928 | 18 | 209 | 9.7 | 20.9 | 0.00 | 0.00 | 0.00 | 81 | 1018.3 |
| 20260902191432 | 18 | 230 | 9.7 | 27.4 | 0.00 | 0.00 | 0.00 | 81 | 1018.3 |
| 20260902190950 | 18 | 302 | 12.9 | 27.4 | 0.00 | 0.00 | 0.00 | 82 | 1018.5 |
| 20260902190435 | 18 | 242 | 8.0 | 24.1 | 0.00 | 0.00 | 0.00 | 82 | 1018.4 |
| 20260902185933 | 17 | 313 | 11.3 | 25.7 | 0.00 | 0.00 | 0.00 | 81 | 1018.3 |
| 20260902185419 | 18 | 177 | 14.5 | 25.7 | 0.00 | 0.00 | 0.00 | 80 | 1018.4 |
| 20260902184926 | 18 | 217 | 16.1 | 25.7 | 0.00 | 0.00 | 0.00 | 78 | 1018.2 |
| 20260902184431 | 19 | 277 | 12.9 | 29.0 | 0.00 | 0.00 | 0.00 | 77 | 1018.3 |
| 20260902183934 | 19 | 300 | 9.7 | 29.0 | 0.00 | 0.00 | 0.00 | 77 | 1018.1 |
| 20260902183418 | 19 | 282 | 9.7 | 24.1 | 0.00 | 0.00 | 0.00 | 77 | 1018.2 |
| 20260902182920 | 18 | 217 | 12.9 | 24.1 | 0.00 | 0.00 | 0.00 | 77 | 1018.2 |
| 20260902182425 | 18 | 214 | 6.4 | 19.3 | 0.00 | 0.00 | 0.00 | 78 | 1018.3 |
| 20260902181932 | 18 | 283 | 9.7 | 19.3 | 0.00 | 0.00 | 0.00 | 78 | 1018.2 |
| 20260902181418 | 18 | 237 | 9.7 | 20.9 | 0.00 | 0.00 | 0.00 | 77 | 1018.2 |
| 20260902180923 | 18 | 333 | 12.9 | 22.5 | 0.00 | 0.00 | 0.00 | 77 | 1018.2 |
| 20260902180426 | 18 | 275 | 9.7 | 24.1 | 0.00 | 0.00 | 0.00 | 77 | 1018.1 |
| 20260902175930 | 18 | 273 | 14.5 | 24.1 | 0.00 | 0.00 | 0.00 | 77 | 1018.0 |
| 20260902175437 | 18 | 197 | 12.9 | 24.1 | 0.00 | 0.00 | 0.00 | 77 | 1018.1 |
| 20260902174949 | 18 | 247 | 12.9 | 27.4 | 0.00 | 0.00 | 0.00 | 77 | 1017.9 |
| 20260902174435 | 18 | 237 | 12.9 | 27.4 | 0.00 | 0.00 | 0.00 | 77 | 1017.9 |
| 20260902173922 | 18 | 268 | 9.7 | 19.3 | 0.00 | 0.00 | 0.00 | 77 | 1017.9 |
| 20260902173429 | 19 | 234 | 11.3 | 17.7 | 0.00 | 0.00 | 0.00 | 77 | 1017.7 |
| 20260902172926 | 19 | 234 | 8.0 | 20.9 | 0.00 | 0.00 | 0.00 | 78 | 1017.6 |
| 20260902172434 | 18 | 212 | 8.0 | 20.9 | 0.00 | 0.00 | 0.00 | 78 | 1017.5 |
| 20260902171950 | 18 | 249 | 9.7 | 20.9 | 0.00 | 0.00 | 0.00 | 78 | 1017.5 |
| 20260902171435 | 18 | 221 | 9.7 | 20.9 | 0.00 | 0.00 | 0.00 | 79 | 1017.4 |
| 20260902170921 | 18 | 235 | 6.4 | 17.7 | 0.00 | 0.00 | 0.00 | 79 | 1017.5 |
| 20260902170428 | 18 | 242 | 6.4 | 24.1 | 0.00 | 0.00 | 0.00 | 78 | 1017.5 |
| 20260902165933 | 18 | 226 | 8.0 | 24.1 | 0.00 | 0.00 | 0.00 | 78 | 1017.4 |
| 20260902165420 | 18 | 211 | 4.8 | 20.9 | 0.00 | 0.00 | 0.00 | 78 | 1017.4 |
| 20260902164920 | 18 | 238 | 8.0 | 19.3 | 0.00 | 0.00 | 0.00 | 78 | 1017.4 |
| 20260902164426 | 18 | 247 | 6.4 | 16.1 | 0.00 | 0.00 | 0.00 | 78 | 1017.3 |
| 20260902163934 | 18 | 213 | 9.7 | 16.1 | 0.00 | 0.00 | 0.00 | 77 | 1017.3 |
| 20260902163419 | 18 | 227 | 8.0 | 16.1 | 0.00 | 0.00 | 0.00 | 77 | 1017.2 |
| 20260902162927 | 18 | 234 | 3.2 | 14.5 | 0.00 | 0.00 | 0.00 | 77 | 1017.3 |
| 20260902162432 | 18 | 208 | 4.8 | 12.9 | 0.00 | 0.00 | 0.00 | 77 | 1017.3 |
| 20260902161934 | 18 | 268 | 3.2 | 8.0 | 0.00 | 0.00 | 0.00 | 77 | 1017.3 |
| 20260902161436 | 18 | 258 | 3.2 | 9.7 | 0.00 | 0.00 | 0.00 | 77 | 1017.3 |
| 20260902160920 | 18 | 151 | 4.8 | 9.7 | 0.00 | 0.00 | 0.00 | 77 | 1017.3 |
| 20260902160423 | 18 | 107 | 3.2 | 9.7 | 0.00 | 0.00 | 0.00 | 77 | 1017.2 |
| 20260902155925 | 18 | 134 | 3.2 | 9.7 | 0.00 | 0.00 | 0.00 | 76 | 1017.2 |
| 20260902155432 | 18 | 196 | 3.2 | 9.7 | 0.00 | 0.00 | 0.00 | 76 | 1017.2 |
| 20260902154936 | 18 | 134 | 4.8 | 9.7 | 0.00 | 0.00 | 0.00 | 76 | 1017.2 |
| 20260902154422 | 18 | 160 | 4.8 | 9.7 | 0.00 | 0.00 | 0.00 | 76 | 1017.3 |
| 20260902153926 | 18 | 268 | 1.6 | 8.0 | 0.00 | 0.00 | 0.00 | 76 | 1017.2 |
| 20260902153428 | 18 | 158 | 1.6 | 8.0 | 0.00 | 0.00 | 0.00 | 77 | 1017.3 |
| 20260902152931 | 17 | 88 | 1.6 | 6.4 | 0.00 | 0.00 | 0.00 | 77 | 1017.3 |
| 20260902152436 | 17 | 99 | 1.6 | 8.0 | 0.00 | 0.00 | 0.00 | 77 | 1017.3 |
| 20260902151921 | 17 | 55 | 4.8 | 8.0 | 0.00 | 0.00 | 0.00 | 77 | 1017.3 |
| 20260902151425 | 17 | 101 | 1.6 | 6.4 | 0.00 | 0.00 | 0.00 | 78 | 1017.2 |
| 20260902150948 | 17 | 83 | 3.2 | 6.4 | 0.00 | 0.00 | 0.00 | 78 | 1017.3 |
| 20260902150428 | 17 | 168 | 3.2 | 6.4 | 0.00 | 0.00 | 0.00 | 78 | 1017.2 |
| 20260902145929 | 17 | 177 | 1.6 | 4.8 | 0.00 | 0.00 | 0.00 | 78 | 1017.2 |
| 20260902145434 | 17 | 116 | 1.6 | 4.8 | 0.00 | 0.00 | 0.00 | 79 | 1016.9 |
| 20260902144918 | 17 | 34 | 1.6 | 3.2 | 0.00 | 0.00 | 0.00 | 79 | 1016.8 |
| 20260902144446 | 17 | 209 | 1.6 | 3.2 | 0.00 | 0.00 | 0.00 | 79 | 1016.7 |
| 20260902143930 | 16 | 313 | 0.0 | 3.2 | 0.00 | 0.00 | 0.00 | 79 | 1016.7 |
| 20260902143430 | 16 | 45 | 0.0 | 3.2 | 0.00 | 0.00 | 0.00 | 78 | 1016.6 |
| 20260902142934 | 16 | 88 | 0.0 | 3.2 | 0.00 | 0.00 | 0.00 | 78 | 1016.5 |
| 20260902142446 | 16 | 104 | 1.6 | 3.2 | 0.00 | 0.00 | 0.00 | 78 | 1016.6 |
| 20260902141929 | 16 | 205 | 1.6 | 3.2 | 0.00 | 0.00 | 0.00 | 78 | 1016.6 |
| 20260902141435 | 16 | 177 | 1.6 | 3.2 | 0.00 | 0.00 | 0.00 | 78 | 1016.6 |
| 20260902140921 | 16 | 177 | 1.6 | 3.2 | 0.00 | 0.00 | 0.00 | 78 | 1016.6 |
| 20260902140424 | 16 | 177 | 1.6 | 3.2 | 0.00 | 0.00 | 0.00 | 78 | 1016.6 |
| 20260902135921 | 16 | 45 | 0.0 | 3.2 | 0.00 | 0.00 | 0.00 | 78 | 1016.6 |
| 20260902135425 | 17 | 134 | 0.0 | 3.2 | 0.00 | 0.00 | 0.00 | 77 | 1016.6 |
| 20260902134930 | 17 | 134 | 1.6 | 4.8 | 0.00 | 0.00 | 0.00 | 77 | 1016.6 |
| 20260902134434 | 17 | 222 | 1.6 | 4.8 | 0.00 | 0.00 | 0.00 | 77 | 1016.6 |
| 20260902133940 | 17 | 134 | 1.6 | 4.8 | 0.00 | 0.00 | 0.00 | 77 | 1016.5 |
| 20260902133421 | 17 | 151 | 1.6 | 4.8 | 0.00 | 0.00 | 0.00 | 77 | 1016.6 |
| 20260902132925 | 16 | 123 | 1.6 | 3.2 | 0.00 | 0.00 | 0.00 | 77 | 1016.6 |
| 20260902132429 | 16 | 240 | 1.6 | 3.2 | 0.00 | 0.00 | 0.00 | 77 | 1016.5 |
| 20260902131934 | 16 | 222 | 1.6 | 4.8 | 0.00 | 0.00 | 0.00 | 77 | 1016.4 |
| 20260902131449 | 16 | 27 | 1.6 | 4.8 | 0.00 | 0.00 | 0.00 | 77 | 1016.4 |
| 20260902130933 | 16 | 160 | 1.6 | 4.8 | 0.00 | 0.00 | 0.00 | 77 | 1016.4 |
| 20260902130436 | 16 | 147 | 3.2 | 4.8 | 0.00 | 0.00 | 0.00 | 77 | 1016.3 |
| 20260902125921 | 16 | 107 | 0.0 | 3.2 | 0.00 | 0.00 | 0.00 | 77 | 1016.3 |
| 20260902125427 | 16 | 268 | 1.6 | 3.2 | 0.00 | 0.00 | 0.00 | 77 | 1016.3 |
| 20260902124927 | 16 | 88 | 1.6 | 3.2 | 0.00 | 0.00 | 0.00 | 77 | 1016.4 |
| 20260902124433 | 16 | 330 | 1.6 | 4.8 | 0.00 | 0.00 | 0.00 | 77 | 1016.3 |
| 20260902123937 | 16 | 158 | 3.2 | 6.4 | 0.00 | 0.00 | 0.00 | 78 | 1016.2 |
| 20260902123441 | 16 | 1 | 1.6 | 6.4 | 0.00 | 0.00 | 0.00 | 78 | 1016.3 |
| 20260902122924 | 17 | 160 | 3.2 | 6.4 | 0.00 | 0.00 | 0.00 | 78 | 1016.2 |
| 20260902122430 | 17 | 196 | 1.6 | 8.0 | 0.00 | 0.00 | 0.00 | 78 | 1016.2 |
| 20260902121936 | 17 | 88 | 1.6 | 8.0 | 0.00 | 0.00 | 0.00 | 78 | 1016.2 |
| 20260902121434 | 17 | 160 | 1.6 | 9.7 | 0.00 | 0.00 | 0.00 | 78 | 1016.2 |
| 20260902120937 | 16 | 134 | 6.4 | 11.3 | 0.00 | 0.00 | 0.00 | 79 | 1016.3 |
| 20260902120439 | 16 | 177 | 3.2 | 11.3 | 0.00 | 0.00 | 0.00 | 79 | 1016.3 |
| 20260902115922 | 16 | 177 | 1.6 | 6.4 | 0.00 | 0.00 | 0.00 | 79 | 1016.3 |
| 20260902115443 | 16 | 120 | 1.6 | 4.8 | 0.00 | 0.00 | 0.00 | 80 | 1016.4 |
| 20260902114929 | 16 | 88 | 1.6 | 6.4 | 0.00 | 0.00 | 0.00 | 80 | 1016.2 |
| 20260902114431 | 16 | 134 | 3.2 | 6.4 | 0.00 | 0.00 | 0.00 | 80 | 1016.3 |
| 20260902113918 | 16 | 205 | 1.6 | 3.2 | 0.00 | 0.00 | 0.00 | 80 | 1016.2 |
| 20260902113443 | 16 | 128 | 1.6 | 6.4 | 0.00 | 0.00 | 0.00 | 80 | 1016.2 |
| 20260902112928 | 16 | 120 | 3.2 | 6.4 | 0.00 | 0.00 | 0.00 | 80 | 1016.1 |
| 20260902112432 | 16 | 177 | 1.6 | 4.8 | 0.00 | 0.00 | 0.00 | 80 | 1016.1 |
| 20260902111937 | 16 | 107 | 1.6 | 4.8 | 0.00 | 0.00 | 0.00 | 80 | 1016.2 |
| 20260902111421 | 16 | 134 | 0.0 | 3.2 | 0.00 | 0.00 | 0.00 | 80 | 1016.3 |
| 20260902110924 | 16 | 177 | 1.6 | 3.2 | 0.00 | 0.00 | 0.00 | 80 | 1016.2 |
| 20260902110429 | 16 | 88 | 0.0 | 4.8 | 0.00 | 0.00 | 0.00 | 80 | 1016.2 |
| 20260902105932 | 16 | 222 | 1.6 | 4.8 | 0.00 | 0.00 | 0.00 | 80 | 1016.3 |
| 20260902105418 | 16 | 134 | 1.6 | 3.2 | 0.00 | 0.00 | 0.00 | 80 | 1016.3 |
| 20260902104924 | 16 | 151 | 1.6 | 3.2 | 0.00 | 0.00 | 0.00 | 80 | 1016.3 |
| 20260902104458 | 16 | 116 | 1.6 | 3.2 | 0.00 | 0.00 | 0.00 | 80 | 1016.4 |
| 20260902103925 | 16 | 75 | 1.6 | 3.2 | 0.00 | 0.00 | 0.00 | 80 | 1016.4 |
| 20260902103426 | 16 | 88 | 1.6 | 3.2 | 0.00 | 0.00 | 0.00 | 80 | 1016.4 |
| 20260902102932 | 16 | 112 | 1.6 | 4.8 | 0.00 | 0.00 | 0.00 | 80 | 1016.4 |
| 20260902102447 | 16 | 156 | 1.6 | 4.8 | 0.00 | 0.00 | 0.00 | 80 | 1016.4 |
| 20260902101928 | 16 | 138 | 3.2 | 4.8 | 0.00 | 0.00 | 0.00 | 80 | 1016.3 |
| 20260902101435 | 16 | 127 | 3.2 | 4.8 | 0.00 | 0.00 | 0.00 | 80 | 1016.3 |
| 20260902100917 | 16 | 123 | 3.2 | 4.8 | 0.00 | 0.00 | 0.00 | 80 | 1016.3 |
| 20260902100423 | 16 | 112 | 3.2 | 4.8 | 0.00 | 0.00 | 0.00 | 80 | 1016.3 |
| 20260902095923 | 16 | 99 | 1.6 | 8.0 | 0.00 | 0.00 | 0.00 | 80 | 1016.3 |
| 20260902095429 | 16 | 104 | 4.8 | 8.0 | 0.00 | 0.00 | 0.00 | 80 | 1016.3 |
| 20260902094947 | 16 | 147 | 1.6 | 6.4 | 0.00 | 0.00 | 0.00 | 80 | 1016.3 |
| 20260902094434 | 16 | 222 | 1.6 | 8.0 | 0.00 | 0.00 | 0.00 | 80 | 1016.3 |
| 20260902093918 | 16 | 212 | 3.2 | 12.9 | 0.00 | 0.00 | 0.00 | 80 | 1016.3 |
| 20260902093423 | 16 | 235 | 4.8 | 14.5 | 0.00 | 0.00 | 0.00 | 80 | 1016.3 |
| 20260902092922 | 16 | 196 | 4.8 | 14.5 | 0.00 | 0.00 | 0.00 | 80 | 1016.3 |
| 20260902092426 | 16 | 215 | 6.4 | 12.9 | 0.00 | 0.00 | 0.00 | 80 | 1016.2 |
| 20260902091929 | 16 | 211 | 4.8 | 9.7 | 0.00 | 0.00 | 0.00 | 81 | 1016.2 |
| 20260902091432 | 16 | 230 | 6.4 | 9.7 | 0.00 | 0.00 | 0.00 | 81 | 1016.3 |
| 20260902090936 | 16 | 239 | 3.2 | 9.7 | 0.00 | 0.00 | 0.00 | 81 | 1016.3 |
| 20260902090419 | 16 | 240 | 3.2 | 9.7 | 0.00 | 0.00 | 0.00 | 81 | 1016.4 |
| 20260902085923 | 16 | 236 | 4.8 | 9.7 | 0.00 | 0.00 | 0.00 | 81 | 1016.5 |
| 20260902085446 | 16 | 259 | 3.2 | 8.0 | 0.00 | 0.00 | 0.00 | 81 | 1016.5 |
| 20260902084930 | 16 | 244 | 3.2 | 9.7 | 0.00 | 0.00 | 0.00 | 81 | 1016.5 |
| 20260902084433 | 16 | 212 | 3.2 | 9.7 | 0.00 | 0.00 | 0.00 | 81 | 1016.5 |
| 20260902083935 | 16 | 268 | 3.2 | 11.3 | 0.00 | 0.00 | 0.00 | 81 | 1016.5 |
| 20260902083420 | 16 | 196 | 4.8 | 9.7 | 0.00 | 0.00 | 0.00 | 81 | 1016.6 |
| 20260902082920 | 16 | 185 | 3.2 | 6.4 | 0.00 | 0.00 | 0.00 | 81 | 1016.7 |
| 20260902082424 | 16 | 239 | 1.6 | 4.8 | 0.00 | 0.00 | 0.00 | 81 | 1016.7 |
| 20260902081924 | 16 | 222 | 1.6 | 4.8 | 0.00 | 0.00 | 0.00 | 81 | 1016.7 |
| 20260902081431 | 16 | 251 | 1.6 | 6.4 | 0.00 | 0.00 | 0.00 | 81 | 1016.7 |
| 20260902080934 | 16 | 212 | 3.2 | 6.4 | 0.00 | 0.00 | 0.00 | 81 | 1016.6 |
| 20260902080439 | 16 | 232 | 3.2 | 6.4 | 0.00 | 0.00 | 0.00 | 81 | 1016.7 |
| 20260902075941 | 16 | 177 | 1.6 | 6.4 | 0.00 | 0.00 | 0.00 | 81 | 1016.7 |
| 20260902075455 | 16 | 189 | 1.6 | 8.0 | 0.00 | 0.00 | 0.00 | 81 | 1016.7 |
| 20260902074935 | 16 | 209 | 3.2 | 11.3 | 0.00 | 0.00 | 0.00 | 81 | 1016.6 |
| 20260902074421 | 16 | 212 | 6.4 | 11.3 | 0.00 | 0.00 | 0.00 | 81 | 1016.6 |
| 20260902073924 | 16 | 256 | 1.6 | 9.7 | 0.00 | 0.00 | 0.00 | 81 | 1016.6 |
| 20260902073427 | 16 | 184 | 3.2 | 11.3 | 0.00 | 0.00 | 0.00 | 81 | 1016.6 |
| 20260902073017 | 16 | 222 | 4.8 | 11.3 | 0.00 | 0.00 | 0.00 | 81 | 1016.6 |
| 20260902072434 | 16 | 222 | 4.8 | 12.9 | 0.00 | 0.00 | 0.00 | 82 | 1016.6 |
| 20260902071936 | 16 | 231 | 8.0 | 12.9 | 0.00 | 0.00 | 0.00 | 82 | 1016.5 |
| 20260902071420 | 16 | 251 | 6.4 | 12.9 | 0.00 | 0.00 | 0.00 | 82 | 1016.6 |
| 20260902070946 | 16 | 251 | 4.8 | 16.1 | 0.00 | 0.00 | 0.00 | 82 | 1016.7 |
| 20260902070456 | 16 | 240 | 6.4 | 11.3 | 0.00 | 0.00 | 0.00 | 83 | 1016.6 |
| 20260902065932 | 16 | 251 | 6.4 | 14.5 | 0.00 | 0.00 | 0.00 | 83 | 1016.5 |
| 20260902065435 | 16 | 206 | 6.4 | 14.5 | 0.00 | 0.00 | 0.00 | 83 | 1016.5 |
| 20260902064934 | 16 | 232 | 3.2 | 8.0 | 0.00 | 0.00 | 0.00 | 83 | 1016.5 |
| 20260902064437 | 16 | 226 | 3.2 | 8.0 | 0.00 | 0.00 | 0.00 | 83 | 1016.6 |
| 20260902063921 | 16 | 256 | 3.2 | 6.4 | 0.00 | 0.00 | 0.00 | 83 | 1016.5 |
| 20260902063423 | 16 | 212 | 3.2 | 6.4 | 0.00 | 0.00 | 0.00 | 83 | 1016.5 |
| 20260902062947 | 16 | 230 | 1.6 | 4.8 | 0.00 | 0.00 | 0.00 | 83 | 1016.7 |
| 20260902062433 | 16 | 177 | 1.6 | 4.8 | 0.00 | 0.00 | 0.00 | 83 | 1016.6 |
| 20260902061935 | 16 | 88 | 1.6 | 3.2 | 0.00 | 0.00 | 0.00 | 83 | 1016.6 |
| 20260902061437 | 16 | 205 | 1.6 | 4.8 | 0.00 | 0.00 | 0.00 | 83 | 1016.5 |
| 20260902060951 | 16 | 222 | 1.6 | 4.8 | 0.00 | 0.00 | 0.00 | 83 | 1016.6 |
| 20260902060459 | 16 | 215 | 1.6 | 3.2 | 0.00 | 0.00 | 0.00 | 83 | 1016.6 |
| 20260902055924 | 16 | 268 | 1.6 | 3.2 | 0.00 | 0.00 | 0.00 | 83 | 1016.7 |
| 20260902055425 | 16 | 134 | 1.6 | 3.2 | 0.00 | 0.00 | 0.00 | 83 | 1016.6 |
| 20260902054924 | 16 | 123 | 1.6 | 3.2 | 0.00 | 0.00 | 0.00 | 83 | 1016.6 |
| 20260902054429 | 16 | 134 | 1.6 | 3.2 | 0.00 | 0.00 | 0.00 | 83 | 1016.7 |
| 20260902053935 | 16 | 151 | 1.6 | 3.2 | 0.00 | 0.00 | 0.00 | 82 | 1016.6 |
| 20260902053419 | 16 | 116 | 1.6 | 3.2 | 0.00 | 0.00 | 0.00 | 82 | 1016.6 |
| 20260902052920 | 16 | 144 | 1.6 | 3.2 | 0.00 | 0.00 | 0.00 | 82 | 1016.7 |
| 20260902052421 | 16 | 123 | 1.6 | 3.2 | 0.00 | 0.00 | 0.00 | 82 | 1016.6 |
| 20260902051926 | 16 | 151 | 1.6 | 6.4 | 0.00 | 0.00 | 0.00 | 82 | 1016.6 |
| 20260902051427 | 16 | 151 | 3.2 | 6.4 | 0.00 | 0.00 | 0.00 | 82 | 1016.6 |
| 20260902050931 | 16 | 144 | 3.2 | 4.8 | 0.00 | 0.00 | 0.00 | 82 | 1016.7 |
| 20260902050435 | 16 | 148 | 3.2 | 4.8 | 0.00 | 0.00 | 0.00 | 82 | 1016.7 |
| 20260902045939 | 16 | 212 | 1.6 | 8.0 | 0.00 | 0.00 | 0.00 | 82 | 1016.8 |
| 20260902045424 | 16 | 192 | 3.2 | 9.7 | 0.00 | 0.00 | 0.00 | 82 | 1016.8 |
| 20260902044926 | 16 | 217 | 4.8 | 9.7 | 0.00 | 0.00 | 0.00 | 82 | 1016.8 |
| 20260902044432 | 16 | 205 | 3.2 | 8.0 | 0.00 | 0.00 | 0.00 | 82 | 1016.7 |
| 20260902043936 | 16 | 193 | 3.2 | 8.0 | 0.00 | 0.00 | 0.00 | 82 | 1016.8 |
| 20260902043420 | 16 | 213 | 3.2 | 8.0 | 0.00 | 0.00 | 0.00 | 82 | 1016.7 |
| 20260902042922 | 17 | 213 | 3.2 | 9.7 | 0.00 | 0.00 | 0.00 | 82 | 1016.8 |
| 20260902042428 | 17 | 177 | 4.8 | 8.0 | 0.00 | 0.00 | 0.00 | 82 | 1016.7 |
| 20260902041935 | 17 | 240 | 4.8 | 9.7 | 0.00 | 0.00 | 0.00 | 82 | 1016.8 |
| 20260902041436 | 17 | 198 | 3.2 | 9.7 | 0.00 | 0.00 | 0.00 | 82 | 1016.7 |
| 20260902040924 | 17 | 256 | 4.8 | 9.7 | 0.00 | 0.00 | 0.00 | 82 | 1016.7 |
| 20260902040458 | 17 | 219 | 4.8 | 14.5 | 0.00 | 0.00 | 0.00 | 82 | 1016.7 |
| 20260902035920 | 17 | 268 | 8.0 | 14.5 | 0.00 | 0.00 | 0.00 | 82 | 1016.6 |
| 20260902035425 | 17 | 209 | 4.8 | 12.9 | 0.00 | 0.00 | 0.00 | 82 | 1016.6 |
| 20260902034932 | 17 | 261 | 6.4 | 12.9 | 0.00 | 0.00 | 0.00 | 82 | 1016.6 |
| 20260902034418 | 17 | 223 | 6.4 | 12.9 | 0.00 | 0.00 | 0.00 | 82 | 1016.5 |
| 20260902033919 | 17 | 222 | 4.8 | 14.5 | 0.00 | 0.00 | 0.00 | 82 | 1016.5 |
| 20260902033424 | 17 | 220 | 6.4 | 16.1 | 0.00 | 0.00 | 0.00 | 82 | 1016.4 |
| 20260902032926 | 17 | 212 | 8.0 | 16.1 | 0.00 | 0.00 | 0.00 | 82 | 1016.4 |
| 20260902032434 | 17 | 313 | 6.4 | 11.3 | 0.00 | 0.00 | 0.00 | 82 | 1016.3 |
| 20260902031918 | 17 | 282 | 3.2 | 17.7 | 0.00 | 0.00 | 0.00 | 82 | 1016.4 |
| 20260902031423 | 17 | 323 | 4.8 | 17.7 | 0.00 | 0.00 | 0.00 | 82 | 1016.5 |
| 20260902030929 | 17 | 259 | 9.7 | 16.1 | 0.00 | 0.00 | 0.00 | 82 | 1016.4 |